Regional Weather Roundup
Issued by NWS Upton, NY

Home | Current Version | Previous Version | Text Only | Print | Product List | Glossary On
Versions: 1 2 3 4 5 6 7 8 9 10 11 12 13 14 15 16 17 18 19 20 21 22 23 24 25 26 27 28 29 30 31 32 33 34 35 36 37 38 39 40 41 42 43 44 45 46 47 48 49 50
000
ASUS41 KOKX 011205
RWROKX

REGIONAL WEATHER ROUNDUP
NATIONAL WEATHER SERVICE NEW YORK NY
700 AM EST SUN MAR 01 2015

NOTE: "FAIR" INDICATES FEW OR NO CLOUDS BELOW 12,000 FEET WITH NO
SIGNIFICANT WEATHER AND/OR OBSTRUCTIONS TO VISIBILITY.

NYZ071-072-176-178-NJZ106-104-011300-
NEW YORK CITY METRO AREA


CITY           SKY/WX    TMP DP  RH WIND       PRES   REMARKS
CENTRAL PARK   CLOUDY    27  -1  30 CALM      30.68F
LAGUARDIA APRT MOCLDY    27   4  37 CALM      30.67F
KENNEDY INTL   CLOUDY    27   3  35 W3        30.69F
NEWARK/LIBERTY CLOUDY    23   5  46 NE5       30.66F WCI  17
BRNX BOT. GARD   N/A    N/A N/A N/A NE3       30.68F
TETERBORO      CLOUDY    21   9  59 CALM      30.67F
$$

NYZ177-179-078>081-011300-
LONG ISLAND NEW YORK

CITY           SKY/WX    TMP DP  RH WIND       PRES   REMARKS
FARMINGDALE    CLOUDY    21  12  68 CALM      30.69R
ISLIP          MOCLDY    19  11  70 CALM      30.67S
SHIRLEY        CLOUDY    15   8  73 CALM      30.70S
WESTHAMPTON    CLOUDY    10   3  73 CALM      30.70F
MONTAUK POINT    N/A     21  16  81 CALM      30.70F
$$

NYZ052-065-067-011300-
HUDSON VALLEY

CITY           SKY/WX    TMP DP  RH WIND       PRES   REMARKS
WHITE PLAINS   MOCLDY    15   7  70 CALM      30.64F
NEWBURGH       MOCLDY    12   7  79 CALM      30.64F
MONTGOMERY     CLOUDY     9   2  73 CALM      30.63F
POUGHKEEPSIE   CLOUDY    10   1  67 CALM      30.67F
ALBANY         CLOUDY     9   1  70 CALM      30.65F
$$

NJZ001-105-106-008-010-013-015-019>022-104-011300-
NEW JERSEY

CITY           SKY/WX    TMP DP  RH WIND       PRES   REMARKS
NEWARK/LIBERTY CLOUDY    23   5  46 NE5       30.66F WCI  17
TETERBORO      CLOUDY    21   9  59 CALM      30.67F
CALDWELL       CLOUDY    15   4  61 NE5       30.65F WCI   8
MORRISTOWN     CLEAR     14   9  79 CALM      30.66F
SOMERVILLE     CLOUDY    14   5  67 CALM      30.64F
SUSSEX         CLOUDY    10   2  69 CALM      30.62F
ANDOVER          N/A     13   6  74 CALM      30.61F
TRENTON        CLOUDY    20   6  55 CALM      30.65F
MILLVILLE      CLOUDY   N/A N/A N/A CALM      30.66F
ATLANTIC CITY  MOCLDY    18  12  77 E3        30.67F
WRIGHTSTOWN    CLOUDY    17   8  68 E1        30.64F
TOMS RIVER     MOCLDY    16  12  86 CALM      30.67F
BELMAR         MOCLDY    19   9  63 CALM      30.65F
$$

PAZ047>061-062-071-011300-
EASTERN PENNSYLVANIA

CITY           SKY/WX    TMP DP  RH WIND       PRES   REMARKS
PHILADELPHIA   CLOUDY    24  13  62 CALM      30.67F
ALLENTOWN      CLOUDY    18   5  57 E3        30.63F
SCRANTON       CLOUDY    15   8  73 CALM      30.55F HAZE
$$

CTZ002-004>006-009-010-012-RIZ004-006-007-MAZ004-011-015-011300-
SOUTHERN NEW ENGLAND
 IN CT

CITY           SKY/WX    TMP DP  RH WIND       PRES   REMARKS
BRADLEY INTL   CLOUDY    11   1  64 NE3       30.67F
HARTFORD       CLOUDY    10   5  80 CALM      30.70S
DANBURY        MOCLDY    10   1  67 CALM      30.66F
WTRBRY/OXFORD  CLOUDY    12  -2  52 CALM      30.63F
BRIDGEPORT     CLOUDY    17   6  62 CALM      30.69S
MERIDEN        CLOUDY    11   4  73 CALM      30.69F
NEW HAVEN      CLOUDY    15   8  73 CALM      30.68F
CHESTER        CLOUDY    21   9  58 CALM      30.66F
GROTON         CLOUDY    12   7  80 N3        30.70S
WILLIMANTIC    CLOUDY     4  -3  73 CALM      30.69F

 IN RI

CITY           SKY/WX    TMP DP  RH WIND       PRES   REMARKS
PROVIDENCE     MOCLDY    13   2  61 SW6       30.69S WCI   4
BLOCK ISLAND   PTCLDY    21  10  63 CALM      30.66F
WESTERLY       CLOUDY     9   4  80 CALM      30.70S

 IN MA

CITY           SKY/WX    TMP DP  RH WIND       PRES   REMARKS
BOSTON         CLOUDY    18   7  62 SW3       30.68R
WORCESTER      CLOUDY    16   0  49 W8        30.60R WCI   5
WESTFIELD      CLOUDY     7  -1  70 CALM      30.67F
PROVINCETOWN   PTCLDY    10   3  72 SW6       30.68R WCI   1
NANTUCKET      PTCLDY    14  11  87 W3        30.69S
$$

ANZ330-335-338-340-345-350-353-355-011300-
COASTAL MARINE OBSERVATIONS


STATION/POSITION TIME  SKY/WX   TEMP    WIND        PRES    VSBY  WAVE
                                AIR SEA DIR/SP/G                  HT/PER
                 (UTC)          (F)     (DEG/KT/KT) (MB)    (MI)  (FT/S)
NY HARB ENTRANCE 1200            28 37  280/  4/  8 1038.7          1/ 9
4S FIRE IS       NOT AVBL
20S FIRE ISLAND  1100               37              1039.9          2/ 9
23SW MTP         1200                                 N/A           2/ 9
HUDSON CANYON    NOT AVBL
EXECUTION ROCKS  NOT AVBL
WESTERN LI SOUND NOT AVBL
CENTRAL LI SOUND NOT AVBL
EASTERN LI SOUND NOT AVBL
ROBBINS REEF     1100            24     300/  3/  4 1037.8
$$


>>>>>>>>>>>>>>>>>>>>>>>>>>>> KEY <<<<<<<<<<<<<<<<<<<<<<<<<<<
>                                                          <
>     SKY/WX - SKY CONDITION/PRESENT WEATHER               <
>     TMP    - TEMPERATURE IN FAHRENHEIT                   <
>     DP     - DEWPOINT IN FAHRENHEIT                      <
>     RH     - RELATIVE HUMIDITY IN PERCENT                <
>     WIND   - DIRECTION AND SPEED IN MPH                  <
>     PRES   - MEAN SEA LEVEL PRESSURE IN INCHES OF HG     <
>     WCI    - WIND CHILL INDEX                            <
>     VSB    - VISIBILITY IN MILES                         <
>     HX     - HEAT INDEX                                  <
>     TC     - TEMPERATURE IN CELSIUS                      <
>     VRB    - VARIABLE WIND DIRECTION                     <
>                                                          <
>>>>>>>>>>>>>>>>>>>>>>>>>>>> KEY <<<<<<<<<<<<<<<<<<<<<<<<<<<





USA.gov is the U.S. government's official web portal to all federal, state and local government web resources and services.